Location: Gradaro
(45.0833°N, 10.8833°E)
Time: 00:22:44
(UTC+00:00)

Cosmos 2263 Rocket - Pass Details

Date: 22 April 2021
Orbit: 824 x 848 km, 71.0° (Epoch: 15 May)

Event Time Altitude Azimuth Distance (km) Brightness Sun altitude
Exits shadow 20:34:40 23° 76° (ENE) 1,705 3.5 -22.0°
Drops below altitude 10° 20:37:33 10° 48° (NE) 2,432 4.6 -22.3°
Sets 20:40:20 0° 36° (NE) 3,372 5.5 -22.7°
